GFSFLT2_sfc_30mbdewp_018.txt.gz
Dewpoint
55 56 60 62 62 62 63 64 64 63 63 64 64 64 64 64 64 63 63 62 62 62 62 61 60 59 58 58 58 58 58 57
56 57 57 57 57 60 62 63 63 63 62 62 62 61 61 60 61 61 61 61 61 60 60 59 59 58 57 56 55 55 56 57
59 58 59 58 56 58 59 61 63 63 62 61 60 57 58 57 59 60 60 59 59 58 58 56 55 55 55 54 53 52 54 53
59 61 61 60 54 57 58 58 57 59 60 60 57 60 59 57 58 58 58 57 56 56 56 54 54 47 50 53 49 52 52 52
59 62 63 61 56 55 53 54 56 57 61 61 60 60 59 58 56 55 54 55 51 51 51 48 50 50 47 49 48 49 46 46
60 62 63 62 57 54 54 54 54 55 57 61 59 57 57 57 54 53 53 51 52 50 49 53 52 50 48 46 46 44 42 44
60 62 63 60 59 55 56 57 55 57 56 56 59 56 54 54 52 51 50 49 49 49 49 49 47 44 41 40 38 38 41 37
60 62 62 57 54 56 55 55 54 55 53 53 58 58 53 51 48 47 46 46 46 48 48 48 44 43 40 40 37 36 37 38
59 61 58 55 53 53 51 49 52 49 49 52 54 55 52 51 47 46 45 46 49 51 50 48 46 42 39 38 38 38 37 39
56 57 54 53 51 50 48 47 48 46 47 48 49 51 51 50 47 46 46 47 47 47 46 45 44 42 38 35 34 35 36 37
53 55 51 51 50 49 49 50 48 45 46 44 45 47 48 48 46 45 47 46 45 45 45 45 44 40 37 35 35 35 34 34
53 52 50 50 48 47 43 42 41 42 40 40 42 42 43 45 44 45 46 46 45 44 44 44 43 42 37 32 33 35 35 34
48 48 46 43 41 38 37 37 37 37 38 41 43 42 43 44 43 43 43 44 45 46 45 45 45 43 42 37 36 36 38 36
40 38 37 36 35 36 38 39 39 41 41 40 39 40 40 39 40 40 40 41 42 44 45 45 45 43 41 38 34 33 34 37
37 38 39 41 41 39 39 39 39 36 37 36 36 36 37 38 38 40 40 40 39 40 42 43 43 44 43 41 35 33 32 33
40 40 40 41 41 38 39 37 36 37 36 35 37 36 36 36 37 38 39 39 39 40 40 42 43 42 42 42 42 39 36 34
42 40 40 41 41 39 38 38 37 37 38 38 36 33 32 33 37 38 40 40 41 43 42 42 42 41 40 40 39 40 39 36
41 39 38 40 41 40 39 39 40 38 36 34 30 31 31 32 37 39 40 41 41 41 41 40 40 39 39 38 38 37 36 36
39 39 38 38 40 39 39 38 37 36 35 32 33 31 31 34 38 39 39 40 40 40 39 39 38 38 37 36 36 35 34 33
41 40 38 36 36 37 36 37 38 37 34 34 34 34 34 37 39 39 39 38 40 39 39 39 38 37 36 36 36 35 35 34

GFSFLT2_sfc_30mbdewp_021.txt.gz
Dewpoint
51 54 59 62 62 63 63 64 63 63 63 64 63 63 63 63 63 63 62 62 62 62 61 61 60 59 58 57 57 57 58 52
51 52 52 55 58 61 62 63 63 63 62 62 61 61 60 60 62 61 61 61 61 60 60 60 59 58 57 56 56 56 56 51
52 51 52 52 50 57 59 61 62 62 61 60 60 57 56 58 58 59 60 59 59 59 58 57 56 57 56 54 54 50 50 48
54 56 54 52 47 52 53 52 54 55 56 57 54 57 57 55 57 58 58 58 57 57 56 55 54 47 51 54 50 46 47 44
52 59 58 55 52 48 48 49 51 53 56 57 55 56 55 54 53 54 55 56 52 54 52 50 49 49 46 45 44 45 43 42
52 60 60 57 51 48 48 48 50 51 54 55 53 52 52 52 50 49 47 46 47 48 47 48 51 50 47 45 43 42 37 40
50 57 62 56 55 50 50 51 50 53 52 52 52 51 50 49 48 47 45 45 45 45 45 46 46 46 44 42 40 38 38 39
50 55 61 57 50 51 50 51 50 50 48 48 51 52 51 50 48 46 45 43 43 45 46 46 46 43 43 42 41 37 35 37
50 55 59 57 50 49 47 46 46 45 45 48 49 50 48 49 46 46 45 45 47 46 45 45 45 45 42 40 39 40 38 37
48 54 58 55 48 47 45 44 44 43 44 45 46 48 48 48 46 46 46 47 46 45 44 44 44 43 43 41 39 36 36 37
48 54 56 53 49 46 46 47 46 43 44 43 43 45 45 46 46 45 47 46 47 47 45 45 44 44 42 42 40 37 37 35
49 53 53 51 48 46 43 42 40 41 40 40 43 44 44 45 45 45 45 44 44 45 47 46 46 45 43 41 43 39 38 38
50 50 49 45 42 39 37 38 38 38 39 42 43 43 43 42 41 40 42 40 42 45 45 45 46 46 45 45 45 44 42 39
41 41 40 39 37 39 40 41 40 41 42 41 40 39 39 38 39 39 39 39 41 42 43 43 44 45 44 43 41 40 41 41
39 40 41 42 41 39 39 39 39 37 38 38 38 40 39 39 39 38 39 40 39 41 41 41 41 42 43 42 40 38 39 39
41 41 40 41 42 39 40 39 38 39 40 40 41 41 38 35 34 34 38 40 41 41 38 42 42 39 39 38 41 44 42 41
43 40 41 41 42 41 41 40 40 40 39 38 37 33 33 32 32 34 38 39 39 41 43 43 42 42 41 40 40 40 40 39
41 40 39 40 41 42 41 40 39 36 36 35 33 33 32 32 32 36 38 40 40 42 41 40 40 39 39 38 37 36 35 34
41 40 40 39 39 39 38 37 37 36 36 34 35 33 31 32 35 38 38 41 40 40 40 40 39 38 37 37 38 37 36 35
42 42 40 38 39 39 39 40 38 38 36 36 34 32 33 34 37 38 39 41 41 39 39 39 38 36 35 34 33 33 32 29

GFSFLT2_sfc_30mbdewp_024.txt.gz
Dewpoint
56 59 61 62 63 63 63 63 63 63 63 63 63 63 63 63 63 62 62 62 62 61 61 61 60 59 58 57 57 57 58 57
54 57 59 60 61 61 62 62 62 62 61 61 61 61 61 62 61 61 61 60 60 60 59 59 59 59 58 58 56 55 55 56
52 52 53 59 59 60 61 61 62 62 61 59 60 61 61 60 58 58 59 58 58 58 57 56 56 57 57 57 56 53 52 49
55 54 53 51 48 57 61 60 61 62 61 59 59 57 57 55 58 58 58 58 58 57 57 56 55 53 55 56 56 52 48 47
56 58 56 55 52 49 53 54 55 58 59 57 58 56 58 58 59 59 59 59 58 57 56 56 54 53 52 51 49 47 46 46
58 59 58 55 55 52 51 53 53 55 55 56 55 55 55 53 53 50 50 50 50 49 49 51 51 52 52 49 47 46 44 43
53 60 61 58 55 54 53 52 55 54 54 54 55 54 54 54 52 51 50 49 47 49 48 48 50 49 49 47 45 44 43 41
54 58 63 59 54 53 52 54 55 54 52 51 53 54 54 53 51 51 50 49 49 48 48 50 50 49 48 47 45 43 42 42
52 61 60 59 53 51 50 50 47 48 50 49 50 51 51 51 51 50 50 51 50 50 50 49 49 48 48 47 47 44 43 42
51 52 60 59 54 51 48 48 47 46 46 48 48 49 50 50 51 51 51 52 51 51 50 49 48 48 47 47 45 44 43 43
47 52 56 57 54 50 49 48 48 47 48 46 48 46 48 49 49 50 51 50 50 50 49 49 48 48 47 46 47 46 43 41
49 55 56 54 51 49 47 45 45 45 44 46 47 46 48 47 47 47 48 46 46 46 48 48 48 48 47 46 47 47 47 44
51 50 48 46 45 41 42 43 44 43 44 46 44 45 43 44 44 44 44 44 45 46 46 45 45 47 47 46 46 47 48 46
42 42 43 43 43 42 43 43 43 44 44 42 43 43 43 43 43 42 43 43 43 44 44 45 44 45 44 44 41 42 44 43
42 42 43 44 45 42 42 42 43 42 43 43 44 45 44 43 44 43 42 42 42 42 43 42 43 44 44 43 40 39 41 42
42 42 42 43 44 43 43 43 42 43 43 42 43 42 41 38 37 39 40 43 42 43 44 45 44 42 43 41 41 41 41 39
43 41 40 43 43 44 44 43 43 42 41 41 39 40 39 38 37 38 41 42 42 45 43 41 41 40 39 39 38 37 39 37
43 41 41 42 41 42 41 41 41 40 41 40 40 39 37 37 37 39 40 42 43 42 41 40 39 39 38 38 37 35 35 34
42 43 42 42 42 42 42 43 43 41 40 40 38 36 36 36 37 39 42 42 42 41 40 40 40 38 36 36 37 36 35 34
41 42 41 40 42 44 43 42 41 40 39 37 36 36 36 37 41 41 41 41 41 40 39 40 39 39 37 36 36 36 36 35

GFSFLT2_sfc_30mbdewp_027.txt.gz
Dewpoint
61 62 62 62 62 62 62 62 62 62 62 63 63 63 64 63 62 62 61 61 61 60 59 59 59 59 58 58 57 57 57 55
57 60 61 61 62 61 61 61 61 60 60 61 61 61 62 62 60 60 59 59 58 58 57 56 57 58 58 58 58 58 53 53
58 58 59 59 60 60 60 60 60 59 60 60 60 60 60 62 60 59 58 58 57 56 55 56 56 56 54 55 56 56 53 52
55 56 59 58 57 60 60 61 61 61 61 61 60 60 60 60 58 58 58 58 58 58 56 56 57 55 53 54 56 54 50 47
55 52 53 55 55 58 60 60 61 61 61 57 56 57 58 58 59 58 58 59 58 58 57 57 56 54 53 52 51 49 46 45
56 55 54 55 54 53 55 56 58 59 57 55 54 56 52 54 52 52 53 54 56 56 54 53 53 52 53 52 49 46 44 44
58 57 56 55 53 53 52 54 55 55 55 54 53 55 52 53 52 51 50 50 49 48 48 47 48 48 48 49 48 45 44 43
59 59 59 57 54 52 53 53 53 54 54 53 53 54 53 53 51 52 50 50 51 50 49 49 49 49 49 49 47 46 43 42
61 62 60 59 54 51 50 54 48 51 50 51 52 51 50 51 50 51 51 52 51 50 50 51 49 49 49 49 49 48 45 43
61 62 60 63 54 50 49 49 48 47 50 50 50 50 50 50 48 48 50 50 49 49 49 49 49 49 48 48 48 47 46 45
55 60 62 59 54 51 50 48 46 46 47 48 47 48 49 48 47 47 48 49 48 48 48 49 48 47 47 47 47 46 47 46
50 50 51 53 51 49 48 47 47 46 46 47 45 47 44 43 43 44 44 43 44 44 44 44 45 44 45 46 47 48 48 48
44 43 44 43 42 41 42 42 43 43 45 43 42 45 45 44 44 42 42 42 43 43 43 43 43 44 43 44 45 45 45 47
43 43 43 43 43 44 44 44 44 45 46 45 45 43 42 43 43 43 43 42 42 42 41 41 43 44 43 43 39 40 42 43
42 43 43 43 43 43 43 44 43 43 42 42 43 42 40 39 39 39 39 43 42 41 44 43 42 43 42 41 39 39 39 41
42 42 42 43 43 44 43 43 41 42 42 42 41 40 39 38 38 38 40 41 40 45 42 40 39 38 39 39 39 39 35 32
42 42 43 43 44 44 44 41 41 42 42 41 40 38 37 37 36 37 38 42 44 41 40 40 39 37 37 38 37 36 38 35
43 42 42 43 43 43 42 42 43 41 40 38 37 37 37 36 36 40 42 42 42 42 41 40 39 39 37 36 36 34 33 33
42 43 41 42 43 42 42 42 41 39 38 36 35 35 35 36 41 41 42 42 41 40 40 40 40 38 37 36 36 36 35 34
41 41 40 41 42 42 41 39 41 38 36 35 35 33 34 38 39 39 38 38 39 40 40 39 38 38 38 39 38 36 38 35

GFSFLT2_sfc_30mbdewp_030.txt.gz
Dewpoint
62 63 63 62 61 61 62 63 63 63 63 63 63 63 62 62 62 61 60 59 59 57 56 56 57 57 56 55 56 57 56 53
60 62 61 60 60 60 60 60 61 61 61 61 61 62 62 62 61 60 59 59 57 56 55 55 56 55 54 55 55 57 54 53
59 59 59 59 60 61 61 60 60 60 60 60 60 60 61 62 60 58 59 58 57 56 56 55 55 55 54 54 56 54 53 49
56 57 57 58 59 61 59 60 60 60 60 60 60 60 60 61 60 59 59 58 58 58 58 58 57 55 54 54 53 53 52 46
56 58 58 56 57 59 59 60 60 61 61 61 60 60 60 60 58 59 58 58 58 58 57 57 55 55 54 53 52 51 48 45
55 57 58 56 55 57 58 59 60 60 60 58 57 58 54 56 57 56 55 53 55 56 55 53 52 52 51 51 51 51 47 45
54 55 55 54 53 55 55 57 58 60 57 55 55 53 52 53 52 52 51 51 50 49 49 48 48 49 49 49 49 48 47 45
57 55 57 57 54 53 53 55 56 56 55 54 54 54 52 53 50 51 50 51 52 50 50 50 50 50 50 50 50 49 48 46
57 60 60 57 56 54 52 53 54 55 53 53 53 53 52 50 50 49 50 51 50 49 49 49 48 49 49 49 49 49 49 48
61 58 55 57 59 57 52 51 48 51 51 52 52 51 51 50 48 48 48 48 46 46 46 44 45 45 46 46 47 48 47 47
60 59 57 54 59 57 52 50 48 49 49 50 49 50 48 47 46 46 45 43 43 45 43 44 42 43 43 44 44 46 46 47
56 58 58 57 56 50 47 45 45 47 47 45 46 44 44 44 45 44 44 43 43 42 42 42 41 42 43 42 45 45 46 46
47 46 46 45 45 43 43 43 44 45 44 45 44 43 42 41 41 41 41 41 43 43 43 40 42 43 43 41 43 42 43 42
44 43 42 43 44 44 44 44 44 43 43 43 42 40 39 37 38 38 39 42 41 41 43 43 44 42 40 41 39 38 41 36
42 42 42 43 43 43 44 44 43 42 42 41 40 38 38 38 37 37 38 40 40 42 42 41 41 40 40 35 33 33 34 36
42 42 43 43 44 43 42 42 40 42 41 40 39 38 37 37 37 38 40 42 43 43 41 40 39 36 39 38 38 37 33 30
42 42 43 44 44 44 43 41 43 42 41 38 36 37 36 37 40 41 42 42 42 41 40 40 39 38 37 37 35 34 36 33
43 43 42 44 44 43 43 42 41 39 37 35 36 36 35 39 41 41 42 41 41 40 40 39 39 38 37 36 34 33 31 31
43 42 42 42 42 41 41 40 39 37 35 34 34 34 35 38 40 40 41 41 39 40 39 38 38 38 37 36 36 35 36 34
41 40 41 42 42 39 40 40 37 36 35 36 36 36 36 37 39 38 38 38 39 39 39 38 38 37 36 37 37 38 37 37

GFSFLT2_sfc_30mbdewp_033.txt.gz
Dewpoint
62 63 63 63 63 64 64 64 64 64 64 64 64 63 63 62 60 60 59 58 56 56 55 55 55 55 54 55 56 57 53 51
60 61 61 61 62 62 61 62 62 62 62 62 61 62 61 61 60 59 59 57 56 55 55 55 55 55 56 55 56 56 52 50
59 60 59 59 59 59 60 61 61 61 61 61 61 61 61 61 60 59 59 58 57 57 57 57 56 56 55 55 55 53 52 49
59 58 58 58 59 60 60 60 60 60 60 60 60 59 59 61 61 60 60 59 59 59 59 59 59 56 54 54 53 52 52 48
57 57 57 57 57 59 59 60 59 60 59 59 59 60 60 60 60 58 58 57 57 57 56 56 55 54 53 53 53 52 51 48
56 57 56 56 57 57 58 59 59 59 60 60 59 58 58 57 58 56 53 51 51 51 51 50 49 49 50 50 50 50 50 49
56 57 57 56 56 57 57 58 59 59 60 58 56 56 52 53 52 51 51 51 51 50 50 49 49 49 49 49 49 50 49 49
55 56 57 55 54 55 56 57 58 59 59 56 55 53 52 52 50 50 50 51 50 49 49 48 46 46 44 46 46 48 48 48
55 56 57 57 55 53 54 55 55 56 56 54 54 54 53 51 50 48 49 48 46 46 45 44 42 44 42 43 45 45 46 47
58 60 58 58 59 57 52 50 49 52 52 52 52 51 50 48 47 46 45 44 44 44 43 41 41 41 41 41 42 43 45 45
59 59 58 58 54 52 49 47 48 47 48 47 46 45 45 44 43 43 43 43 43 43 42 42 40 41 42 42 42 43 44 46
56 57 57 57 49 47 46 45 45 45 45 43 42 41 40 39 39 39 41 40 41 42 41 41 42 42 42 42 42 43 44 41
51 49 48 46 46 46 44 42 43 43 41 40 39 39 38 37 36 36 38 38 40 40 41 40 42 41 41 39 41 42 39 35
42 42 42 43 43 44 43 43 43 41 41 40 39 38 37 36 35 35 37 38 39 39 42 42 43 40 37 38 32 32 34 32
41 41 41 42 43 44 44 44 44 41 40 39 39 38 38 37 37 39 40 41 41 42 42 40 40 39 39 34 30 29 32 33
42 42 43 43 43 42 41 40 39 42 41 39 37 37 36 38 40 41 42 42 41 42 40 39 38 37 37 38 37 37 30 29
42 43 44 45 44 44 42 41 42 41 38 36 36 35 36 40 41 40 40 41 41 40 40 39 38 37 37 36 35 34 35 32
42 42 43 44 43 43 42 42 40 38 36 35 35 35 36 40 40 41 41 41 40 40 39 38 37 37 37 36 35 34 32 32
42 42 42 42 42 41 41 40 38 36 34 33 34 34 35 36 38 38 39 40 39 39 38 38 37 36 36 36 36 36 36 36
41 42 41 41 39 39 40 38 36 35 35 35 35 35 35 36 37 38 37 38 38 38 38 37 37 36 36 35 35 35 37 36

GFSFLT2_sfc_30mbdewp_036.txt.gz
Dewpoint
64 65 65 66 66 66 66 66 65 65 64 64 64 63 62 61 60 59 58 57 56 56 56 56 57 57 57 57 57 57 51 50
60 62 62 62 63 63 63 63 63 63 62 62 62 62 61 60 60 59 58 57 58 58 58 58 57 57 56 56 56 54 52 50
60 60 59 59 60 62 62 62 62 61 61 61 61 60 61 61 60 59 59 59 59 59 59 59 59 57 56 56 54 53 52 51
58 59 58 58 59 60 59 60 60 60 60 60 59 59 59 60 61 60 60 59 59 58 58 57 56 54 53 53 52 52 52 51
57 58 57 57 57 58 58 59 59 59 59 59 59 59 59 59 59 58 57 56 53 54 53 53 50 50 50 51 50 50 51 50
56 57 56 56 57 58 58 58 59 59 59 60 59 58 58 58 57 56 52 51 50 50 50 49 49 49 48 47 46 47 49 49
55 56 56 56 56 57 57 58 59 59 60 60 58 57 55 54 52 52 51 51 51 49 48 47 45 45 44 43 43 45 46 47
55 56 58 56 55 56 56 57 58 59 59 57 56 54 53 52 50 50 49 48 47 46 45 44 42 42 40 41 42 43 43 45
55 57 58 58 56 55 54 55 55 56 55 54 53 53 51 49 47 45 45 45 45 44 43 42 41 41 40 41 42 42 42 45
59 58 59 57 54 53 52 50 50 51 51 49 47 47 45 43 41 41 43 43 43 42 42 41 40 41 41 41 42 42 44 45
59 58 59 57 54 51 50 47 46 46 44 43 41 41 40 38 38 39 39 39 40 41 40 41 39 41 41 41 41 41 44 39
58 59 58 55 52 49 46 44 43 42 40 39 39 39 39 38 37 38 39 37 37 39 39 40 41 42 40 42 40 42 38 34
57 58 56 52 49 45 43 42 41 40 40 40 40 39 37 36 35 36 38 38 39 40 41 41 42 41 40 36 39 41 34 31
49 46 45 44 44 43 42 42 41 40 40 39 39 37 36 36 37 38 40 40 41 42 41 40 41 40 36 35 30 31 34 32
41 41 41 42 43 44 44 43 42 40 40 38 38 37 36 37 38 39 40 40 40 41 40 38 37 38 38 34 30 29 33 32
41 42 42 43 44 42 41 40 39 41 40 38 37 36 37 39 40 40 39 40 38 40 40 39 37 35 36 37 37 36 32 30
42 43 43 44 44 43 42 41 42 40 38 36 36 35 37 40 39 39 39 40 40 40 39 38 38 36 36 36 35 34 33 33
43 43 43 43 43 43 42 42 40 37 36 35 34 35 35 38 39 39 40 40 39 39 39 38 37 36 36 36 35 34 32 33
42 42 42 42 42 42 42 41 39 37 35 34 33 33 34 34 36 38 39 39 39 39 38 37 36 36 35 35 35 35 35 35
42 42 41 41 40 40 39 38 36 35 34 34 34 34 35 35 35 37 37 37 38 38 37 37 37 36 34 34 34 34 34 34

GFSFLT2_sfc_30mbdewp_042.txt.gz
Dewpoint
65 65 67 68 67 67 67 67 66 65 64 64 63 62 61 60 60 59 59 59 59 59 59 60 60 58 57 55 54 52 46 45
60 60 61 61 63 66 66 65 64 64 63 62 61 60 59 58 58 60 60 60 60 60 60 59 56 54 54 53 52 52 45 44
58 57 58 57 57 63 63 63 63 62 61 61 59 56 56 56 59 61 61 60 60 59 57 54 52 51 50 50 50 44 44 43
55 55 56 56 54 57 57 56 56 57 57 58 57 59 57 56 59 59 58 55 54 54 52 50 49 47 45 44 43 44 43 43
52 56 57 55 55 55 53 55 57 59 60 60 60 59 59 57 56 55 54 52 50 51 50 49 50 47 44 44 43 41 40 39
52 55 57 57 54 55 56 56 58 58 59 61 60 59 60 59 56 54 53 52 52 51 49 49 47 45 44 43 42 41 40 39
52 54 55 56 57 57 58 58 58 60 60 62 61 60 59 56 55 52 51 49 48 47 46 45 44 43 43 43 41 41 40 39
55 56 56 56 57 58 58 58 59 59 61 61 60 59 57 55 53 50 48 47 46 45 45 43 42 42 40 41 40 40 40 40
57 58 58 57 57 55 55 56 57 59 60 59 59 58 56 53 50 47 45 44 43 42 42 40 40 39 38 38 38 37 37 39
58 59 58 57 57 56 56 56 56 57 57 57 55 52 50 47 44 43 44 43 41 41 39 38 36 35 35 33 32 33 32 37
58 58 58 57 56 56 57 54 53 50 48 48 47 46 45 43 43 43 42 40 40 37 34 32 31 30 28 24 27 28 25 30
59 59 57 57 57 56 54 48 45 44 43 43 43 43 44 42 42 42 38 34 31 33 33 32 32 33 32 27 30 28 29 33
58 58 59 59 56 52 46 44 43 43 43 43 43 42 43 42 38 35 32 31 34 34 32 29 28 32 32 24 23 25 36 34
58 58 58 56 52 47 45 44 43 42 42 43 42 42 40 36 35 32 33 31 32 33 34 31 27 28 33 29 19 19 20 30
56 54 53 49 46 46 45 45 43 41 42 41 41 40 37 35 35 34 34 33 31 33 33 32 29 28 30 30 26 20 23 25
46 47 47 48 47 44 43 40 40 43 43 41 40 37 35 34 35 36 36 35 35 33 31 34 32 29 27 27 29 29 29 27
45 45 44 45 46 45 45 44 43 43 42 42 38 37 35 34 35 36 36 35 35 36 36 35 33 31 30 29 28 27 26 27
45 44 45 46 46 46 46 44 41 39 38 35 33 33 32 33 35 35 36 36 36 35 36 35 34 33 32 31 30 28 24 25
46 44 44 46 46 44 43 41 38 34 33 30 31 30 31 32 35 35 34 33 36 36 35 33 34 33 31 31 31 31 29 29
44 43 43 43 42 41 40 36 33 32 34 35 34 34 35 37 37 36 33 32 33 34 35 34 34 32 33 31 29 27 27 26

GFSFLT2_sfc_30mbdewp_045.txt.gz
Dewpoint
64 65 67 68 67 67 67 67 66 65 65 64 62 62 61 61 60 59 59 59 59 60 60 59 57 55 54 53 52 52 49 44
59 61 61 63 65 66 66 65 64 64 63 61 60 59 58 58 59 60 60 60 60 60 59 57 54 52 50 49 50 50 44 42
55 55 56 58 60 64 64 63 63 62 60 60 58 54 55 56 58 61 60 59 59 58 56 52 52 53 46 43 45 43 44 42
54 54 54 53 51 56 55 54 55 56 56 57 56 56 57 56 57 59 56 54 54 53 51 51 51 46 45 45 43 44 42 41
52 54 54 51 52 52 51 54 57 58 58 57 59 56 56 56 56 56 54 52 51 51 50 49 50 48 46 45 45 44 43 42
51 54 55 53 52 50 54 53 55 55 59 60 58 58 59 57 54 53 52 50 52 50 48 49 48 47 46 46 45 44 43 43
49 52 54 56 55 56 56 56 57 60 60 62 61 61 59 58 56 53 52 50 48 48 48 47 46 45 45 44 43 43 43 42
51 53 55 56 58 59 58 59 58 60 62 62 61 61 59 56 55 52 50 49 48 46 46 44 44 43 42 42 41 41 40 40
54 56 57 57 56 54 55 56 56 58 60 61 60 59 57 55 52 49 47 45 45 43 44 43 40 39 37 36 36 33 33 35
56 57 58 57 57 56 55 56 56 57 58 57 56 54 52 49 47 46 45 44 43 42 37 35 33 32 32 31 28 27 28 30
57 59 59 58 57 58 57 56 55 54 51 51 49 47 46 45 45 45 43 40 37 35 34 32 31 30 28 30 29 27 30 27
58 58 59 58 58 58 56 55 51 47 45 45 45 45 45 44 44 43 38 36 36 36 35 32 30 28 27 30 31 26 25 28
58 58 58 58 57 54 53 49 46 44 44 44 44 44 44 43 39 37 37 33 33 34 34 32 30 29 27 27 28 30 28 28
58 57 58 58 55 51 48 45 43 43 44 45 44 44 41 37 39 36 35 34 32 33 34 33 31 31 29 27 26 25 25 26
57 56 54 51 46 45 45 44 44 42 43 43 43 42 39 37 37 36 35 33 32 34 33 32 30 30 29 27 25 24 25 25
53 49 46 45 44 43 42 40 41 43 42 41 42 40 38 36 34 35 36 35 34 33 32 34 33 30 29 28 30 29 26 26
44 44 43 45 45 43 44 43 43 42 41 43 42 40 36 34 34 35 34 34 33 34 34 34 34 33 30 30 30 29 29 27
45 44 43 45 46 46 45 45 41 39 40 38 36 33 31 31 32 33 34 33 31 31 32 31 34 33 32 33 32 30 27 27
45 44 44 45 46 46 44 43 40 37 35 33 31 30 30 31 34 34 33 31 30 30 30 32 33 33 34 35 30 29 29 28
45 44 44 46 45 43 42 39 35 34 32 33 33 33 33 34 34 32 28 26 26 28 29 31 33 35 35 32 31 31 28 26

GFSFLT2_sfc_30mbdewp_048.txt.gz
Dewpoint
66 66 68 67 67 67 67 66 65 65 64 63 62 61 60 60 60 60 60 60 60 59 59 57 54 51 48 46 48 49 49 48
65 66 67 66 66 66 65 64 63 63 61 60 59 59 59 59 59 60 60 60 60 59 57 55 53 52 49 43 44 48 46 46
62 62 64 65 65 65 64 63 62 61 60 59 57 56 57 58 59 59 58 57 57 56 53 51 53 54 51 45 46 46 46 45
58 60 61 62 59 62 61 60 59 58 58 58 59 60 58 57 58 58 56 53 54 54 51 51 52 51 50 49 48 48 47 46
56 56 56 55 55 58 56 57 59 60 59 60 59 59 57 57 60 59 58 55 56 52 53 53 51 50 49 49 48 48 47 46
55 56 57 55 54 53 54 57 59 59 60 60 61 60 60 60 59 59 57 53 53 52 52 52 51 49 50 48 48 48 46 46
55 56 56 54 57 59 61 61 60 61 62 62 63 62 61 60 57 56 54 52 51 50 49 48 47 46 46 47 46 44 44 44
53 55 57 60 60 60 59 59 60 62 62 62 62 61 60 59 57 53 50 49 48 46 45 45 46 44 41 41 41 41 39 37
54 56 60 59 57 57 57 57 58 59 60 60 58 58 56 54 52 49 48 47 46 46 43 40 38 38 36 36 36 33 32 32
55 58 59 56 55 55 56 56 56 58 58 56 54 52 53 50 49 48 47 46 45 41 40 38 36 36 34 33 37 34 31 35
57 59 58 59 58 58 57 57 56 55 53 52 49 48 48 47 48 47 44 41 41 39 39 38 36 35 32 29 34 34 34 31
59 60 59 59 59 59 58 55 52 50 48 48 47 47 47 48 46 43 40 39 38 38 39 39 38 36 33 32 34 35 32 35
60 59 58 58 59 56 53 51 49 47 46 47 47 46 46 44 42 40 39 38 37 38 38 37 37 36 34 32 32 31 33 30
59 59 58 58 58 54 53 49 47 46 47 47 46 46 42 43 40 40 39 38 38 39 38 38 36 37 33 33 30 30 31 31
59 58 57 58 54 52 50 49 47 45 47 46 46 44 41 39 39 39 39 38 38 39 38 38 36 36 36 34 31 29 31 31
58 57 57 53 48 46 45 44 44 44 45 46 45 41 40 38 36 37 38 39 38 38 36 37 37 35 35 34 34 33 31 29
58 56 50 47 47 46 45 46 44 46 44 45 45 44 41 38 35 37 37 38 38 38 38 36 36 35 35 34 34 34 34 32
49 46 45 46 46 47 46 46 43 43 42 43 42 42 38 36 36 38 38 38 37 36 35 35 35 36 36 36 35 34 33 32
47 45 45 46 47 47 47 45 43 40 38 38 35 34 35 37 38 37 36 33 32 33 33 34 35 35 36 37 37 35 33 31
46 45 45 46 48 47 45 43 41 38 35 35 36 36 37 37 34 32 31 31 31 32 32 33 33 36 36 37 35 34 34 32

GFSFLT2_sfc_30mbdewp_051.txt.gz
Dewpoint
66 67 67 67 67 66 65 65 65 64 62 61 60 60 60 60 60 60 59 59 59 57 56 53 52 51 49 49 49 48 48 50
65 65 66 66 66 65 64 64 63 61 59 59 58 58 58 59 59 59 59 58 57 56 53 54 53 52 51 49 49 47 46 50
65 65 65 66 65 63 63 62 60 59 58 57 57 58 58 59 58 58 57 56 55 54 54 53 53 53 54 51 48 48 47 48
62 64 64 63 63 62 61 61 59 58 57 57 57 56 57 59 58 58 57 56 54 54 54 53 52 50 49 49 48 47 47 47
62 63 62 60 61 59 59 59 58 57 57 57 57 60 58 59 57 58 58 56 55 54 54 52 49 49 50 49 48 48 48 46
57 59 59 56 60 58 56 58 59 59 61 62 62 60 61 60 59 59 57 55 51 49 47 46 46 45 46 45 45 45 45 45
55 55 54 55 59 61 61 61 62 62 62 62 62 61 59 59 56 53 51 48 46 45 44 45 43 41 39 38 38 39 34 34
55 55 57 60 59 58 59 61 62 61 61 61 60 60 58 54 51 49 47 46 46 44 41 39 38 38 35 35 34 34 31 31
54 58 59 57 57 57 57 59 60 60 58 57 56 55 53 51 49 47 47 46 44 41 38 37 36 36 34 33 36 34 32 33
55 59 56 56 56 56 56 57 58 58 56 54 52 52 50 48 47 46 48 43 40 39 38 37 36 36 35 32 34 34 35 31
58 56 55 56 56 56 55 56 55 55 52 50 48 48 48 48 46 42 42 41 39 38 37 38 37 36 33 33 34 32 34 32
57 58 57 57 57 57 57 55 53 50 48 47 47 47 48 48 45 40 41 38 38 39 38 37 37 36 36 33 32 32 33 33
58 57 57 57 58 57 56 52 49 47 47 47 47 47 45 44 43 41 39 37 39 39 38 36 37 38 34 32 33 34 32 32
58 58 57 57 58 57 53 50 48 47 47 48 47 45 44 41 40 39 38 37 37 38 37 38 37 36 34 35 31 31 33 32
58 58 57 57 59 55 52 49 48 47 46 47 46 43 41 41 40 39 38 38 37 38 37 35 36 36 36 33 31 29 32 32
59 58 57 57 58 53 50 46 45 45 46 46 45 43 40 39 37 38 37 38 37 38 38 37 35 33 35 35 34 34 31 30
58 57 57 57 51 50 47 45 45 46 47 46 44 42 40 38 37 38 38 38 39 36 34 34 35 34 35 34 34 34 34 32
57 57 57 50 47 47 45 45 46 45 45 45 44 44 43 39 38 37 38 35 32 32 33 32 33 34 35 36 35 34 35 35
57 55 49 46 47 48 47 44 43 42 42 40 35 35 38 37 36 35 33 31 31 31 31 31 31 32 34 36 37 37 35 34
50 46 46 46 47 47 45 42 39 38 37 37 37 38 38 31 30 30 30 30 31 31 31 31 32 35 35 35 36 35 35 34

GFSFLT2_sfc_30mbdewp_057.txt.gz
Dewpoint
65 64 63 62 63 66 65 65 64 63 63 63 62 62 61 61 60 59 59 58 57 56 55 55 55 54 53 51 52 51 50 52
64 63 63 64 65 65 64 63 63 62 62 61 60 60 60 60 59 59 58 57 56 56 55 55 55 54 54 52 50 50 48 49
61 61 63 63 64 64 63 62 61 60 60 60 59 59 58 57 58 58 58 57 57 57 55 52 50 49 50 50 49 48 48 48
60 62 62 63 62 63 62 60 59 59 58 58 57 57 57 58 58 58 57 57 56 52 49 48 44 42 41 42 43 41 40 47
62 62 63 62 61 61 60 59 58 57 57 56 56 58 58 57 58 57 55 53 48 46 43 42 39 38 37 38 35 35 35 39
61 62 62 61 60 59 59 57 56 56 56 57 58 57 58 58 56 55 48 47 44 42 40 38 36 35 35 35 33 33 33 34
59 62 61 60 58 57 57 57 57 59 60 60 60 59 58 56 51 48 46 43 40 38 37 36 35 34 36 35 33 34 33 33
61 61 59 59 58 57 58 60 61 61 61 61 60 57 53 50 48 47 43 40 39 37 36 35 35 34 33 34 33 34 33 33
60 59 58 59 58 58 60 61 60 59 59 59 56 53 50 48 47 45 41 40 38 37 37 36 35 34 33 33 32 33 33 33
58 58 58 58 58 59 60 60 58 57 56 56 54 51 49 48 47 44 41 40 38 37 36 36 36 35 34 33 32 33 32 32
57 58 57 57 57 58 58 57 56 54 54 53 51 49 48 46 43 41 40 39 38 38 37 36 35 35 35 33 33 34 32 31
57 57 56 56 56 56 55 54 53 51 51 50 49 48 45 42 42 40 39 39 38 36 35 38 37 35 35 33 35 34 33 32
56 56 55 55 54 53 52 51 50 49 48 48 48 48 44 41 40 38 39 37 36 36 37 36 36 37 34 33 34 33 33 33
56 56 55 54 54 54 53 51 49 48 47 47 48 48 44 41 39 37 39 38 37 37 37 36 36 36 32 32 28 30 33 33
56 55 55 54 55 54 52 48 47 46 46 47 47 45 43 40 39 38 37 37 36 37 36 34 32 34 35 29 26 26 31 32
56 56 55 55 56 53 51 49 46 46 45 47 46 44 42 40 39 39 38 38 38 37 37 35 33 29 33 35 34 33 31 30
57 56 56 56 56 55 51 49 46 46 46 46 45 43 43 41 40 39 39 39 35 32 32 31 33 31 31 32 33 34 33 32
57 56 56 56 57 55 52 49 46 45 46 46 44 43 41 39 39 38 35 32 31 31 31 31 30 31 32 33 33 32 33 32
57 57 56 57 57 55 53 50 46 45 46 45 44 41 39 38 36 35 36 32 32 31 30 30 31 31 32 34 36 36 36 35
58 57 57 57 56 55 53 50 47 46 46 45 41 39 36 36 39 35 32 32 30 30 31 31 33 33 32 32 33 33 34 35

GFSFLT2_sfc_30mbdewp_063.txt.gz
Dewpoint
66 65 65 64 65 65 64 64 63 64 64 64 63 62 62 61 60 60 60 60 59 58 58 58 58 58 56 55 53 53 51 52
64 63 60 62 64 64 64 63 63 64 63 62 61 60 60 60 60 60 60 61 60 59 58 58 56 55 55 53 51 49 48 50
63 59 61 61 58 62 63 63 63 62 61 60 60 59 57 55 58 60 59 58 56 53 52 52 51 50 46 44 42 47 47 48
60 60 59 59 61 63 63 61 60 60 59 59 58 58 58 57 58 59 57 54 52 49 46 43 38 37 36 37 35 38 43 47
57 58 60 60 59 61 60 59 59 58 58 58 58 58 59 58 57 54 50 47 41 40 39 38 39 37 37 37 36 34 34 35
55 55 53 61 60 59 59 56 57 57 57 57 58 58 59 58 56 50 46 43 42 40 40 40 38 38 38 37 36 34 33 33
55 55 61 61 61 59 57 57 56 58 58 58 60 58 58 56 52 47 43 41 40 39 37 37 37 36 35 34 34 35 37 36
56 58 61 61 59 59 57 57 57 57 58 58 60 59 57 52 48 44 42 40 39 37 36 35 35 35 35 35 35 34 38 43
55 59 61 60 59 57 57 56 57 56 58 60 60 59 55 51 48 43 40 41 40 40 37 37 35 34 36 34 34 34 34 36
57 58 61 60 58 57 57 58 59 60 61 61 59 57 54 50 44 42 41 41 39 38 37 36 36 34 34 34 32 32 33 33
57 59 60 60 58 58 59 60 60 60 60 59 57 55 52 48 44 43 43 40 40 37 38 37 35 34 32 34 35 33 33 31
59 60 60 59 59 58 59 60 59 59 59 58 55 52 50 46 44 43 41 40 39 38 38 39 37 36 32 33 36 34 34 34
58 59 59 58 57 57 57 58 57 56 56 55 52 49 48 46 43 42 41 40 39 40 40 38 36 37 33 32 35 36 36 35
57 58 57 57 56 56 57 56 55 55 54 53 51 49 47 45 43 41 41 40 40 40 39 37 37 37 29 29 23 29 33 34
56 57 57 57 57 56 53 52 51 51 52 50 49 47 45 43 43 42 42 41 39 40 39 37 34 35 36 26 20 15 24 30
56 57 57 57 57 55 54 54 52 51 51 49 48 46 44 43 42 42 42 40 40 40 38 37 33 28 33 33 33 27 18 18
57 56 56 56 56 56 55 54 53 52 50 48 48 48 45 42 42 42 41 40 41 39 37 36 35 34 29 30 31 30 32 28
56 56 56 56 56 56 54 53 51 50 49 48 47 46 44 42 41 41 41 40 37 35 36 34 35 34 32 32 29 26 24 28
56 56 55 56 56 55 54 53 52 51 50 48 46 44 43 42 41 40 38 38 38 37 35 33 32 32 33 32 34 33 34 33
55 55 55 56 56 56 55 54 53 52 49 48 47 45 43 42 40 39 40 40 37 37 34 35 35 35 35 36 33 33 32 31

GFSFLT2_sfc_30mbdewp_066.txt.gz
Dewpoint
64 64 65 66 65 65 64 64 64 64 64 64 63 63 62 62 61 61 60 60 60 60 60 59 58 57 56 54 52 50 47 47
63 62 61 59 58 62 64 64 64 64 63 62 61 61 61 61 60 61 61 60 59 58 58 58 57 56 54 51 49 48 44 43
60 60 60 59 57 61 63 64 63 62 60 60 55 52 52 53 59 61 61 59 58 57 56 54 50 48 43 41 43 43 42 42
59 60 58 58 57 57 60 60 57 55 54 53 51 52 51 54 58 59 57 55 52 50 46 44 44 41 39 38 37 37 36 38
59 59 57 57 56 59 59 57 58 55 53 50 54 55 55 55 55 52 50 48 43 42 43 43 43 41 39 37 35 31 30 29
58 58 58 57 58 59 59 57 55 55 52 53 55 54 55 55 53 52 49 46 46 45 44 44 41 39 37 35 34 30 29 27
57 58 57 57 57 57 54 54 53 51 53 53 53 53 54 54 53 50 48 47 45 44 42 39 38 36 34 32 32 33 33 32
55 55 54 55 58 56 53 51 54 53 53 55 57 54 56 54 53 49 46 45 44 42 39 37 35 34 34 33 31 31 34 36
51 54 57 55 58 55 51 50 50 49 50 56 58 58 58 54 51 48 46 45 44 41 38 36 33 31 31 30 30 32 33 35
51 53 57 59 58 54 51 51 52 52 55 59 60 60 58 55 52 48 46 43 41 39 37 34 32 30 31 29 29 30 33 31
51 56 59 61 59 56 55 55 54 56 60 60 60 60 58 55 50 48 46 43 42 39 37 35 34 32 30 32 31 30 32 27
54 56 58 59 60 58 54 53 54 58 61 61 60 59 57 54 49 47 45 43 42 38 37 36 35 35 31 32 33 32 32 31
54 55 57 60 59 54 52 53 56 59 61 60 59 57 56 52 48 47 45 43 40 41 39 38 37 37 35 34 34 35 35 33
55 56 58 59 56 54 52 53 54 57 60 59 58 56 54 51 48 46 45 42 42 41 39 38 38 37 34 33 32 32 34 33
55 56 57 58 56 54 53 55 56 57 58 58 57 54 52 49 47 46 44 42 42 41 41 39 37 37 36 32 28 29 23 25
55 56 57 58 57 54 52 52 52 54 57 57 54 52 50 47 47 46 44 42 42 41 41 39 36 34 34 32 31 25 19 17
53 54 56 58 58 56 55 54 53 55 56 55 53 50 48 46 45 45 44 43 43 41 40 38 36 35 33 30 29 28 27 26
55 54 55 57 59 58 57 56 56 56 55 53 52 51 46 45 43 44 44 43 43 41 40 37 37 34 32 30 28 23 22 22
56 55 54 56 58 58 58 57 57 56 54 53 51 50 48 46 45 44 44 43 42 39 39 38 36 36 34 30 28 27 27 26
55 55 55 56 57 57 58 58 57 57 54 53 51 49 49 48 46 44 43 42 40 40 40 38 37 37 34 32 29 28 28 27

GFSFLT2_sfc_30mbdewp_069.txt.gz
Dewpoint
65 66 66 65 64 64 64 65 64 64 64 64 64 63 63 62 63 63 62 61 61 60 60 59 58 56 54 50 48 49 46 45
63 63 64 62 62 64 64 65 65 64 63 63 62 61 62 62 61 61 61 60 60 59 59 58 56 54 50 47 47 49 42 42
59 59 59 59 59 60 64 64 63 62 61 60 56 52 52 52 61 61 60 60 59 58 57 54 51 47 43 42 45 40 39 41
57 56 56 56 57 58 60 61 59 57 56 54 51 53 51 54 59 59 58 57 56 55 52 49 46 42 41 39 36 35 33 37
58 56 56 55 58 60 59 59 55 56 55 53 53 55 56 55 55 52 52 51 47 45 44 46 47 44 42 37 33 31 30 29
58 57 57 57 58 58 59 57 54 55 55 56 56 55 54 53 52 52 50 47 46 47 47 48 44 41 38 36 34 30 29 28
57 57 56 55 56 55 55 54 55 55 54 56 55 54 55 53 53 51 49 49 49 48 47 43 42 39 35 33 32 33 33 32
56 56 57 56 55 50 47 51 51 53 55 54 56 54 55 53 53 51 50 49 48 47 45 43 39 37 35 32 31 30 34 35
55 56 55 54 53 54 53 53 51 50 50 55 55 53 55 54 53 51 49 49 48 46 44 41 38 33 32 32 32 32 34 33
54 53 53 54 56 55 54 50 51 50 49 53 54 57 58 56 53 51 50 49 47 45 43 40 36 34 33 32 31 31 32 31
50 51 53 57 57 54 50 52 49 47 51 57 60 60 59 57 55 53 50 48 46 44 42 39 35 34 34 35 35 32 34 28
50 54 57 58 58 55 52 52 51 51 54 57 59 60 60 58 54 52 51 47 46 45 42 38 37 37 31 33 37 36 34 34
50 54 56 57 56 53 49 47 48 50 56 59 60 60 59 58 53 52 50 48 47 44 42 40 39 40 38 38 37 38 37 36
50 51 54 55 53 51 47 47 47 50 58 60 60 59 58 57 53 51 50 48 47 45 42 40 41 40 39 37 37 37 36 37
51 51 51 53 52 51 49 49 49 50 56 58 59 58 57 56 53 51 50 48 46 45 43 41 40 40 39 38 35 36 33 32
53 52 51 53 54 51 50 48 48 49 54 57 57 57 57 54 52 51 50 49 46 45 43 43 42 40 39 37 37 33 32 30
53 52 52 53 56 53 51 50 50 51 54 57 58 56 55 54 52 51 51 49 46 46 43 44 42 39 37 37 35 35 35 31
52 52 53 53 55 56 54 53 52 50 55 56 56 55 54 54 53 51 50 47 46 46 44 44 40 39 37 35 35 34 31 27
53 52 51 53 55 56 57 56 55 54 56 55 56 54 53 52 52 50 49 47 46 45 45 42 40 39 38 38 35 33 30 28
53 52 52 51 55 57 58 58 57 58 58 56 56 54 54 52 50 49 49 48 46 46 43 42 40 40 39 38 37 31 30 28

GFSFLT2_sfc_30mbdewp_072.txt.gz
Dewpoint
61 62 67 66 65 66 65 65 65 65 65 64 64 65 65 65 65 64 63 63 62 60 59 58 56 52 48 48 49 49 50 50
61 64 63 64 65 65 65 65 65 65 64 63 63 63 64 63 63 62 62 61 60 59 58 56 52 48 47 47 48 47 47 50
63 62 62 62 62 63 64 64 63 63 61 60 59 59 60 59 61 61 61 60 59 58 56 51 48 46 43 41 42 40 46 51
60 59 59 59 60 62 63 62 60 59 57 55 54 56 58 59 61 60 60 59 58 55 52 49 47 42 42 40 37 37 46 51
58 57 57 56 55 56 56 58 58 58 57 54 57 57 58 58 57 56 55 53 51 51 51 48 49 46 41 39 38 36 39 42
56 57 58 57 56 58 59 58 56 56 57 55 58 57 57 56 54 54 52 51 48 47 51 49 44 41 39 38 36 36 35 45
56 57 58 58 58 58 58 57 55 55 56 57 56 57 56 56 55 53 51 50 51 52 49 46 44 41 38 36 35 35 36 47
56 56 56 55 55 54 54 53 55 55 56 56 56 57 57 56 56 54 52 51 52 51 48 46 45 39 37 34 34 36 36 44
54 54 54 53 52 52 53 53 52 52 55 55 56 56 56 57 56 55 53 52 52 51 48 47 41 39 36 35 35 34 36 34
55 53 52 52 52 52 52 52 52 53 54 55 57 57 57 57 56 54 53 53 50 49 47 44 43 37 36 34 34 35 34 33
54 53 52 52 53 52 52 53 54 54 54 56 57 57 58 58 55 54 52 52 50 49 48 45 39 38 38 38 37 37 34 34
53 53 53 53 53 57 56 55 53 53 55 57 59 60 60 59 56 55 54 52 50 48 47 44 41 40 35 36 39 38 38 37
52 52 53 56 56 55 53 53 52 52 55 58 60 61 60 60 59 56 53 51 49 50 48 42 41 42 41 40 41 40 40 38
51 52 56 58 58 56 53 52 52 51 55 58 60 61 61 60 59 55 53 52 52 48 45 43 44 44 42 41 39 39 40 40
51 54 57 57 57 54 51 51 50 50 58 60 60 61 60 59 58 55 54 53 51 49 48 45 43 43 42 40 38 37 35 38
52 52 55 56 55 52 50 48 48 50 57 59 60 60 59 58 57 56 54 53 51 50 48 46 46 43 42 41 39 37 34 34
53 52 52 52 54 54 52 50 50 50 52 58 59 59 58 57 57 55 54 53 52 50 47 47 48 42 42 40 37 37 38 36
54 54 53 53 55 53 55 52 52 52 56 57 58 58 58 57 56 55 55 54 51 50 49 48 42 42 40 37 36 37 37 36
54 55 53 53 57 56 56 57 54 54 56 57 58 57 56 56 55 54 54 53 51 50 50 47 42 39 38 38 39 38 38 33
53 53 53 53 55 57 58 57 57 56 57 58 57 57 56 55 55 54 53 52 51 51 48 44 42 42 41 41 40 41 38 34